This is the latest recevied weather packets stored in our database for station/object JE0GNV-13. If no packets are shown the sender has not sent any weather packets the latest 10 day(s).
| Time | Temp. | Humidity | Pressure | Rain* | Wind** | Luminosity | Snow |
|---|---|---|---|---|---|---|---|
| 1777851601 | 16.11° C | 81% | 1000.5 hPa | 0 mm | - | - | - |
| 1777851001 | 16.11° C | 85% | 1000.5 hPa | 0 mm | - | - | - |
| 1777850400 | 16.11° C | 85% | 1000.3 hPa | 0 mm | - | - | - |
| 1777849800 | 16.11° C | 86% | 1000.2 hPa | 0 mm | - | - | - |
| 1777849201 | 16.11° C | 87% | 999.7 hPa | 0 mm | - | - | - |
| 1777848601 | 16.11° C | 93% | 999.5 hPa | 0 mm | - | - | - |
| 1777848001 | 15.56° C | 91% | 999.5 hPa | 0 mm | - | - | - |
| 1777847400 | 15.56° C | 95% | 999.5 hPa | 0 mm | - | - | - |
| 1777846800 | 15.56° C | 93% | 999.3 hPa | 0 mm | - | - | - |
| 1777846201 | 15.56° C | 95% | 999.2 hPa | 0.51 mm | - | - | - |
| 1777845602 | 16.11° C | 96% | 999.1 hPa | 0.76 mm | - | - | - |
| 1777845002 | 15.56° C | 96% | 998.9 hPa | 1.02 mm | - | - | - |
| 1777844402 | 15.56° C | 88% | 998.9 hPa | 1.02 mm | - | - | - |
| 1777843800 | 15.56° C | 92% | 998.6 hPa | 1.27 mm | - | - | - |
| 1777843201 | 16.11° C | 97% | 998.6 hPa | 1.52 mm | - | - | - |
| 1777842600 | 16.67° C | 98% | 998.6 hPa | 1.27 mm | - | - | - |
| 1777842001 | 16.67° C | 98% | 998.2 hPa | 1.52 mm | - | - | - |
| 1777841401 | 16.67° C | 99% | 998.1 hPa | 2.03 mm | - | - | - |
| 1777840801 | 16.67° C | 99% | 998.1 hPa | 2.79 mm | - | - | - |
| 1777840200 | 16.11° C | 99% | 997.6 hPa | 3.56 mm | - | - | - |
| 1777839602 | 15.56° C | 99% | 997.4 hPa | 3.81 mm | - | - | - |
| 1777839001 | 15.56° C | 99% | 997.3 hPa | 4.83 mm | - | - | - |
| 1777838401 | 15.56° C | 99% | 997.4 hPa | 5.33 mm | - | - | - |
| 1777837800 | 15° C | 99% | 997.3 hPa | 5.84 mm | - | - | - |
| 1777837200 | 15° C | 99% | 997.3 hPa | 5.59 mm | - | - | - |
* Rain latest hour (hover to see other rain measurements)
** Current wind speed in m/s (hover to see current wind gust speed)